{"data":{"norad_id":53246,"epoch":"2026-05-24T22:33:34.744608Z","epoch_age_seconds":80464,"freshness":"FRESH","line1":"1 53246U 22086E   26144.93998547  .00000138  00000+0  26754-4 0  9998","line2":"2 53246  53.2151 221.8217 0001074  84.5459 275.5656 15.08841553211649","mean_motion":15.08841553,"eccentricity":0.0001074,"inclination_deg":53.2151,"raan_deg":221.8217,"arg_perigee_deg":84.5459,"mean_anomaly_deg":275.5656,"bstar":2.6754e-5,"rev_number":21164,"period_min":95.437456447092,"perigee_km":538.9956622245,"apogee_km":540.48162191242,"semimajor_km":6917.8756420685,"source":"CELESTRAK","updated_at":"2026-05-25T13:38:17.360247Z"}}